Temp
65 64 61 61 61 58 54 60 56 61 62 68 72 72 73 75 74 74 74 75 75 74 75 75 74 74 72 70 67 66 63 63 62 63 63 63 62 62 62 62 62 62 61 59
58 62 61 56 60 61 61 58 59 61 61 72 74 76 75 75 73 71 72 73 74 74 72 71 72 70 68 67 66 65 62 61 62 62 62 60 60 60 60 60 60 61 60 59
55 57 55 51 60 61 60 64 63 56 65 74 70 70 72 71 71 71 72 73 71 71 70 70 70 69 67 67 66 63 62 63 62 61 60 59 59 58 58 58 60 59 58 58
52 54 44 64 64 63 62 65 66 64 67 68 69 72 73 73 71 72 73 72 71 70 69 69 69 67 67 65 64 62 61 62 63 62 60 59 59 57 57 57 57 57 57 57
48 50 59 61 67 58 57 64 70 66 69 71 72 67 72 76 74 72 71 71 71 72 70 70 68 68 65 65 64 62 61 62 62 62 60 59 57 56 57 56 56 56 56 56
50 43 45 63 62 66 66 56 74 73 71 71 68 62 69 75 75 74 73 71 69 70 70 69 69 67 64 64 65 64 64 62 63 62 60 58 58 56 57 57 56 56 56 56
49 47 56 68 64 66 55 62 74 74 73 70 65 71 76 74 73 75 73 71 70 68 68 69 69 66 63 65 65 67 66 63 61 61 60 59 58 58 57 55 55 55 54 54
48 46 44 70 61 60 71 72 74 73 73 70 71 72 72 72 72 72 71 70 69 67 67 69 69 65 63 64 67 67 63 61 60 61 60 59 56 55 55 54 52 52 52 52
56 57 66 66 71 71 72 72 73 71 72 71 70 70 71 71 72 73 73 72 72 68 67 68 68 65 61 64 66 64 62 60 59 61 61 60 56 54 52 53 51 51 51 50
63 67 66 65 70 73 72 70 72 72 71 71 68 70 70 71 71 71 72 72 72 69 67 65 67 66 63 64 65 61 59 59 60 59 57 57 56 55 52 51 51 50 50 50
61 67 68 67 68 70 71 72 70 70 70 69 69 68 69 69 70 71 72 72 72 70 67 65 66 65 65 63 63 58 58 59 58 57 55 54 54 53 53 53 52 51 52 52
59 70 69 71 76 76 72 70 71 70 71 73 71 69 68 68 70 70 70 71 70 69 66 64 65 65 63 62 59 58 57 57 56 55 53 52 51 50 52 51 51 50 50 50
65 70 70 71 73 74 72 72 73 71 71 69 71 71 71 69 70 68 68 68 67 66 66 65 63 62 62 60 57 56 56 55 54 51 50 49 49 48 46 49 50 49 49 49
71 69 65 68 66 71 71 72 70 71 71 70 69 70 69 67 67 66 66 66 66 65 64 61 61 60 60 58 54 52 52 49 49 48 48 48 47 47 47 46 45 47 50 49
64 68 68 69 69 68 70 69 67 66 67 68 69 68 67 65 65 65 66 66 65 63 60 59 57 56 55 52 51 50 49 49 50 49 48 47 46 46 46 46 46 46 47 48
64 65 65 64 64 65 66 66 64 64 65 66 65 65 66 66 65 64 64 63 60 56 57 54 53 52 49 48 48 48 48 46 44 46 46 45 46 44 44 44 44 44 44 45
58 58 61 62 63 64 64 65 65 64 64 64 63 64 64 63 63 62 61 60 58 54 54 52 51 49 48 48 47 47 47 46 45 44 45 45 44 44 44 43 43 43 43 46
64 65 65 64 63 62 62 62 62 62 61 62 63 63 61 60 59 60 60 60 55 52 51 50 49 47 47 47 47 46 45 46 45 43 43 41 40 40 39 41 42 42 43 45
64 62 63 63 63 61 61 60 60 61 61 61 60 59 60 60 59 59 59 55 50 48 49 50 45 46 47 46 45 45 45 44 43 42 42 40 39 39 38 38 38 38 39 41
59 59 59 58 58 58 57 59 59 58 59 59 58 57 56 56 57 56 55 51 51 50 53 49 46 47 47 44 42 44 44 43 42 41 40 39 39 39 39 39 38 38 39 39
53 54 53 54 55 55 56 56 55 54 55 55 54 53 54 55 56 55 50 48 52 50 50 44 47 46 45 44 42 43 43 42 41 39 39 40 40 40 39 40 40 40 39 40
52 52 52 53 53 53 55 56 55 53 52 52 52 53 53 52 54 52 52 50 51 44 45 45 45 44 44 42 43 43 42 40 40 41 40 40 39 38 38 38 38 38 38 38
53 52 52 52 52 52 53 52 53 53 51 51 50 51 52 52 54 50 46 49 48 44 45 44 43 41 42 42 41 40 40 39 38 38 38 38 38 38 37 37 37 38 37 37
53 54 53 53 53 51 50 53 54 53 51 50 50 50 50 50 51 52 52 46 44 42 44 42 41 42 41 41 40 39 38 38 38 38 38 39 38 38 37 37 36 36 36 37
53 53 53 52 50 51 51 51 50 50 50 49 49 50 50 52 50 48 47 45 42 42 42 42 42 41 40 40 39 38 38 38 38 37 38 38 38 37 36 36 36 36 36 36
52 51 51 51 50 50 50 50 48 49 49 47 48 48 49 48 47 46 45 43 41 41 40 39 40 40 39 39 39 38 38 38 38 38 38 38 37 37 36 36 35 35 35 35
51 48 50 49 52 53 52 50 48 47 49 47 46 46 45 43 42 43 42 40 40 39 39 39 39 39 38 38 38 38 38 38 38 37 37 38 37 36 36 35 36 36 35 35
MSLP
1015.27 1015.72 1016.18 1016.07 1016.18 1016.52 1016.34 1015.57 1014.90 1012.16 1011.82 1010.56 1010.32 1010.18 1010.19 1010.19 1010.26 1010.19 1010.18 1010.21 1010.30 1010.47 1010.61 1010.88 1011.27 1011.62 1012.00 1012.42 1012.83 1013.17 1013.58 1013.82 1013.98 1014.37 1014.82 1014.95 1015.49 1015.71 1015.93 1015.97 1016.14 1016.54 1016.80 1017.16
1015.38 1015.60 1015.91 1015.38 1015.21 1015.09 1014.94 1014.86 1014.16 1013.13 1011.70 1010.88 1010.66 1010.32 1010.04 1010.06 1010.10 1010.04 1010.02 1010.04 1009.97 1010.14 1010.51 1010.85 1011.17 1011.56 1011.94 1012.25 1012.59 1012.97 1013.22 1013.39 1013.56 1013.75 1014.20 1014.73 1014.91 1015.34 1015.50 1015.52 1015.76 1015.99 1016.07 1016.10
1015.25 1015.77 1015.93 1015.18 1012.95 1013.21 1013.33 1012.90 1012.76 1012.44 1010.65 1010.26 1010.34 1010.32 1010.31 1010.33 1010.41 1010.20 1009.96 1009.85 1009.97 1010.05 1010.44 1010.68 1011.05 1011.42 1011.66 1011.89 1012.29 1012.72 1012.90 1012.99 1013.29 1013.46 1013.67 1013.98 1014.09 1014.45 1014.65 1014.87 1015.08 1015.04 1015.23 1015.55
1015.90 1015.97 1014.69 1012.30 1012.61 1012.65 1012.59 1011.99 1011.73 1011.13 1010.48 1010.47 1010.62 1010.33 1010.27 1010.21 1010.31 1010.15 1009.98 1009.99 1010.00 1010.27 1010.58 1010.85 1011.07 1011.35 1011.62 1012.10 1012.38 1012.63 1012.77 1012.78 1012.98 1013.28 1013.36 1013.63 1013.94 1013.94 1014.01 1014.07 1014.13 1014.30 1014.33 1014.47
1016.21 1015.15 1013.09 1012.54 1011.46 1012.16 1011.83 1010.28 1009.86 1009.97 1009.89 1009.89 1010.05 1010.53 1009.65 1009.51 1010.06 1010.30 1010.31 1010.26 1010.24 1010.29 1010.61 1010.97 1011.24 1011.35 1011.57 1011.73 1011.96 1012.17 1012.25 1012.42 1012.44 1012.67 1013.10 1013.13 1013.15 1013.26 1013.34 1013.36 1013.24 1013.08 1013.14 1013.34
1016.15 1014.95 1012.81 1011.13 1011.55 1011.59 1011.42 1009.67 1008.13 1008.41 1008.84 1009.29 1010.02 1009.89 1009.27 1009.45 1009.84 1009.98 1010.05 1010.26 1010.39 1010.37 1010.39 1010.75 1011.00 1011.26 1011.35 1011.22 1011.28 1011.44 1011.60 1011.83 1012.03 1012.31 1012.19 1012.52 1012.75 1012.80 1012.74 1012.66 1012.60 1012.62 1012.34 1012.18
1015.40 1013.98 1011.57 1010.78 1011.36 1011.64 1010.72 1008.33 1007.66 1008.04 1008.39 1008.94 1009.43 1009.13 1008.92 1009.33 1009.45 1009.56 1009.66 1009.74 1009.95 1010.20 1010.11 1010.01 1010.36 1010.84 1010.91 1010.72 1010.57 1010.64 1010.93 1011.21 1011.59 1011.88 1012.24 1012.24 1012.19 1012.23 1012.32 1012.49 1012.45 1012.31 1012.27 1011.99
1014.24 1012.99 1010.73 1009.78 1011.29 1010.34 1007.93 1007.73 1007.85 1008.09 1008.22 1008.60 1008.71 1008.80 1008.90 1008.90 1008.91 1008.96 1009.05 1009.22 1009.46 1009.60 1009.58 1009.73 1009.86 1010.34 1010.23 1010.04 1009.91 1010.13 1010.37 1010.50 1010.58 1010.82 1011.19 1011.39 1011.59 1011.65 1011.78 1011.70 1011.57 1011.36 1011.60 1011.75
1010.74 1009.19 1008.86 1008.57 1007.83 1007.90 1007.90 1007.81 1007.74 1008.11 1008.36 1008.60 1008.50 1008.47 1008.54 1008.41 1008.32 1008.26 1008.30 1008.33 1008.51 1008.69 1008.80 1008.93 1009.16 1009.57 1009.70 1009.23 1009.49 1009.79 1010.13 1010.43 1010.41 1010.25 1010.30 1010.61 1010.90 1011.06 1011.21 1011.16 1011.12 1010.80 1010.38 1010.12
1008.71 1007.61 1008.09 1008.34 1008.20 1007.95 1007.86 1007.74 1007.69 1008.00 1008.17 1008.28 1008.07 1008.02 1007.85 1007.69 1007.66 1007.63 1007.72 1007.61 1007.69 1007.82 1007.85 1007.97 1008.09 1008.24 1008.48 1008.85 1009.09 1009.40 1009.68 1009.43 1009.63 1009.70 1009.75 1009.94 1010.05 1010.18 1010.17 1010.43 1010.19 1010.04 1010.05 1009.40
1006.97 1007.07 1007.18 1007.59 1007.84 1007.85 1007.53 1007.43 1007.61 1007.74 1007.75 1007.64 1007.61 1007.30 1007.29 1007.06 1006.92 1006.93 1006.94 1006.94 1006.80 1006.75 1007.02 1007.10 1007.15 1007.45 1007.73 1008.00 1008.38 1008.88 1008.93 1009.00 1009.08 1009.33 1009.53 1009.62 1009.64 1009.69 1009.70 1009.32 1009.53 1009.25 1008.74 1008.70
1005.18 1006.19 1006.14 1006.00 1006.13 1006.32 1006.59 1006.89 1007.03 1007.00 1006.81 1006.78 1006.92 1006.50 1006.71 1006.50 1006.42 1006.37 1006.23 1006.35 1006.17 1006.10 1006.23 1006.31 1006.27 1006.53 1006.88 1007.04 1007.49 1007.96 1008.36 1008.51 1008.82 1009.05 1009.10 1009.37 1009.44 1009.21 1009.06 1008.94 1008.81 1008.90 1008.60 1008.31
1005.75 1006.58 1006.27 1006.26 1006.45 1006.29 1006.17 1006.28 1006.32 1006.37 1006.42 1006.11 1006.17 1006.09 1005.93 1005.60 1005.64 1005.52 1005.75 1005.81 1005.71 1005.59 1005.40 1005.50 1005.61 1005.63 1006.13 1006.91 1007.53 1007.77 1008.06 1008.64 1008.76 1008.91 1009.10 1009.13 1009.18 1008.93 1008.83 1008.23 1008.15 1007.95 1007.78 1007.36
1006.16 1006.41 1006.01 1006.12 1005.98 1006.11 1006.09 1005.82 1005.70 1005.65 1005.66 1005.60 1005.55 1005.63 1005.53 1005.38 1005.32 1005.23 1005.24 1005.23 1005.10 1005.06 1005.05 1005.23 1005.10 1005.17 1005.79 1006.81 1007.62 1007.94 1008.36 1008.93 1009.00 1008.73 1008.56 1008.66 1008.68 1008.76 1008.59 1008.14 1007.75 1007.11 1006.92 1006.81
1006.20 1006.37 1005.84 1005.80 1005.90 1005.54 1005.51 1005.47 1005.02 1004.86 1004.89 1004.86 1004.96 1004.84 1004.88 1004.64 1004.54 1004.56 1004.66 1004.58 1004.51 1004.47 1004.75 1004.77 1004.83 1005.15 1005.88 1006.57 1007.14 1007.50 1007.75 1008.52 1008.89 1008.62 1008.53 1008.49 1008.36 1008.37 1008.27 1007.88 1007.61 1007.07 1006.65 1006.26
1005.65 1005.66 1005.52 1005.23 1005.04 1005.01 1004.96 1004.73 1004.49 1004.34 1004.44 1004.36 1004.33 1004.27 1004.19 1004.13 1003.97 1003.92 1004.04 1004.22 1004.27 1004.23 1004.45 1004.74 1005.04 1005.44 1006.08 1006.64 1007.07 1007.57 1007.75 1008.27 1008.76 1008.58 1008.31 1008.09 1007.86 1007.78 1007.77 1007.62 1007.24 1006.84 1006.53 1005.97
1005.16 1004.49 1004.59 1004.14 1004.36 1004.32 1004.18 1004.17 1004.05 1003.94 1003.99 1004.00 1003.93 1003.94 1003.76 1003.52 1003.25 1003.05 1003.14 1003.43 1003.78 1004.12 1004.41 1004.71 1005.34 1005.98 1006.56 1006.83 1006.87 1007.00 1007.47 1007.90 1008.21 1008.34 1008.07 1007.92 1007.95 1007.76 1007.52 1007.27 1006.80 1006.37 1006.09 1005.82
1004.48 1003.93 1003.98 1003.97 1003.91 1003.96 1004.07 1004.15 1004.09 1003.91 1003.80 1003.67 1003.55 1003.42 1003.31 1003.26 1002.96 1002.80 1002.94 1003.08 1003.61 1004.35 1004.65 1004.82 1005.05 1005.51 1005.94 1006.26 1006.70 1007.22 1007.45 1007.44 1007.83 1007.75 1007.97 1007.83 1008.02 1008.08 1007.87 1007.41 1006.70 1006.06 1005.78 1005.50
1003.67 1003.56 1003.68 1003.69 1003.75 1003.83 1003.84 1003.93 1003.91 1003.73 1003.78 1003.68 1003.61 1003.27 1003.00 1002.89 1002.73 1002.73 1003.05 1003.24 1003.68 1003.94 1004.42 1004.97 1005.39 1005.61 1005.81 1006.20 1006.63 1006.73 1007.27 1007.60 1007.56 1007.52 1007.63 1007.70 1007.80 1007.82 1007.68 1007.35 1006.97 1006.50 1006.27 1005.89
1003.94 1003.98 1004.10 1004.27 1004.42 1004.36 1004.11 1004.01 1003.80 1003.61 1003.41 1003.33 1003.25 1003.05 1002.65 1002.57 1002.67 1002.76 1002.95 1003.05 1003.43 1003.72 1003.77 1004.50 1005.41 1005.69 1005.85 1006.33 1006.62 1006.66 1007.01 1007.44 1007.27 1007.23 1007.25 1007.41 1007.33 1007.31 1007.18 1007.01 1006.66 1006.28 1005.97 1005.69
1004.53 1004.43 1004.49 1004.61 1004.59 1004.56 1004.31 1003.97 1003.76 1003.49 1003.13 1003.11 1002.95 1002.74 1002.41 1002.25 1002.40 1002.24 1002.56 1002.85 1003.14 1003.76 1004.07 1004.81 1005.19 1005.56 1006.00 1006.24 1006.44 1006.68 1007.13 1007.08 1007.12 1007.16 1007.15 1007.12 1006.99 1006.82 1006.82 1006.53 1006.23 1005.87 1005.54 1005.25
1004.74 1004.87 1004.90 1004.79 1004.61 1004.34 1004.20 1003.97 1003.59 1003.48 1003.36 1003.02 1003.01 1002.63 1002.09 1001.96 1002.16 1002.34 1002.46 1002.62 1003.03 1003.71 1004.27 1004.87 1005.48 1005.75 1005.57 1006.09 1006.21 1006.68 1006.89 1006.97 1007.08 1007.03 1006.88 1006.92 1006.83 1006.76 1006.64 1006.33 1005.99 1005.69 1005.32 1004.85
1004.67 1004.61 1004.65 1004.62 1004.46 1004.39 1004.25 1004.10 1003.71 1003.38 1003.12 1002.93 1002.51 1002.42 1002.21 1001.73 1001.47 1002.02 1002.31 1002.83 1003.33 1004.09 1004.25 1004.84 1005.38 1005.83 1005.75 1005.88 1006.37 1006.72 1006.82 1006.94 1007.04 1006.99 1006.88 1006.87 1006.73 1006.69 1006.42 1006.00 1005.73 1005.39 1004.93 1004.40
1004.38 1004.41 1004.41 1004.45 1004.33 1004.32 1003.96 1003.61 1003.33 1003.38 1002.92 1002.71 1002.37 1002.17 1002.05 1001.82 1001.50 1001.87 1002.41 1002.96 1003.26 1003.94 1004.38 1004.73 1005.28 1005.72 1005.54 1006.01 1006.38 1006.64 1006.86 1006.93 1007.03 1006.98 1006.88 1006.72 1006.55 1006.38 1006.03 1005.67 1005.43 1005.07 1004.64 1004.19
1004.36 1004.32 1004.20 1004.11 1003.85 1003.68 1003.57 1003.32 1003.04 1003.04 1002.67 1002.40 1002.29 1001.90 1001.83 1002.00 1001.86 1002.40 1002.92 1003.04 1003.52 1004.03 1004.33 1004.66 1005.00 1005.41 1005.73 1006.08 1006.37 1006.48 1006.61 1006.81 1006.97 1006.83 1006.65 1006.49 1006.36 1006.01 1005.63 1005.39 1005.16 1004.90 1004.44 1004.10
1003.99 1004.05 1004.13 1003.87 1003.49 1003.23 1003.07 1003.14 1002.75 1002.57 1002.37 1002.05 1001.89 1001.93 1002.33 1002.51 1002.61 1002.84 1003.25 1003.40 1003.70 1004.03 1004.36 1004.45 1004.68 1005.24 1005.75 1006.03 1006.05 1006.23 1006.49 1006.70 1006.66 1006.74 1006.60 1006.25 1005.96 1005.62 1005.42 1005.24 1005.00 1004.74 1004.33 1003.91
1003.61 1003.82 1003.36 1002.97 1002.76 1002.52 1002.47 1002.50 1002.27 1002.01 1001.76 1002.04 1002.05 1002.11 1002.69 1002.93 1002.88 1003.01 1003.41 1003.66 1003.90 1004.07 1004.22 1004.45 1004.89 1005.30 1005.63 1005.67 1005.77 1006.03 1006.34 1006.42 1006.50 1006.63 1006.36 1005.98 1005.63 1005.42 1005.31 1005.14 1004.83 1004.46 1004.08 1003.64
Wind_Speed
10 7 9 12 12 14 17 18 13 21 19 20 19 19 19 14 13 13 13 14 13 12 10 8 7 6 4 3 4 5 7 9 10 10 10 11 11 12 12 13 13 14 14 14
9 9 10 17 17 17 19 21 22 24 27 21 17 12 15 14 13 12 12 13 12 12 8 8 7 5 3 4 4 5 7 8 8 9 10 9 10 11 12 12 13 13 14 15
3 1 3 11 18 18 12 14 17 18 17 12 13 13 12 13 12 12 12 12 12 9 8 6 6 4 5 4 4 5 6 7 8 8 9 9 10 11 12 12 13 14 14 14
4 1 7 1 2 2 9 13 16 18 18 16 13 13 13 10 11 11 10 10 7 6 6 7 6 5 4 3 4 5 6 6 7 8 9 9 9 10 10 10 12 12 13 14
5 9 12 14 6 8 9 11 14 20 17 15 5 5 13 7 5 8 10 9 7 5 5 6 6 5 4 5 6 6 6 7 7 8 8 8 10 10 10 10 11 12 12 14
7 6 7 5 5 4 5 11 16 10 11 7 5 6 8 4 4 8 8 7 7 7 7 8 8 6 6 7 7 7 7 6 6 6 7 8 9 9 9 10 11 9 12 12
12 10 9 8 11 7 6 7 9 11 9 9 7 8 9 4 9 10 9 9 8 9 10 10 9 8 9 9 9 7 4 5 5 6 7 7 7 7 8 9 9 10 11 11
9 8 13 15 11 11 8 2 8 10 9 9 11 10 9 10 10 11 11 11 11 10 10 11 8 9 11 11 8 6 7 6 7 7 6 6 7 7 8 8 9 10 10 10
13 9 2 21 12 18 2 7 8 9 9 10 11 12 11 13 13 13 13 10 10 10 11 11 10 11 12 13 8 6 7 7 7 7 7 7 7 7 7 8 8 9 8 8
11 13 15 15 18 14 12 15 15 11 12 11 14 14 15 14 12 13 12 11 10 11 13 13 12 14 15 10 7 7 9 8 7 7 6 6 5 6 6 7 8 8 9 9
17 15 13 10 13 16 18 16 15 16 16 15 15 16 16 14 14 12 12 11 11 10 11 13 13 13 13 11 10 10 10 8 7 5 6 6 6 6 7 8 9 9 9 8
13 8 14 15 12 13 15 17 16 16 16 16 17 18 14 15 13 13 13 13 11 10 11 14 13 12 12 12 12 11 9 6 5 4 3 4 5 7 10 15 17 18 19 15
18 16 18 17 18 21 20 18 19 22 22 22 19 18 18 16 14 13 12 14 13 14 13 12 12 12 12 10 9 10 8 5 3 3 4 5 5 5 8 7 12 18 20 21
14 14 20 21 18 19 20 21 19 21 21 17 17 15 17 17 17 14 14 14 15 15 12 11 11 11 7 8 7 6 4 5 4 5 4 4 5 6 6 7 9 8 8 14
23 23 23 23 23 23 22 21 23 20 18 18 17 17 16 18 16 15 14 14 13 11 11 11 9 7 7 7 7 7 5 5 5 4 4 5 5 5 6 7 8 8 8 8
22 22 22 22 22 21 21 20 21 18 17 16 16 15 16 16 15 14 13 11 13 11 10 8 8 6 7 7 6 4 4 6 6 5 5 4 5 5 6 7 7 7 7 7
21 22 20 21 18 20 19 17 16 15 14 15 16 16 16 16 16 15 12 11 9 8 6 6 5 7 6 6 7 5 4 4 5 5 4 4 5 7 6 6 7 7 7 8
22 22 21 21 18 16 16 16 15 16 15 17 16 15 15 15 16 14 12 9 6 6 6 6 7 8 7 7 5 3 3 3 4 3 4 4 5 6 7 7 7 7 8 8
18 18 18 16 13 13 13 13 14 13 13 13 14 15 14 14 14 13 11 6 8 9 8 8 9 8 7 6 5 4 4 4 3 3 4 6 6 6 6 6 6 6 8 9
7 7 8 9 9 9 10 11 12 12 12 12 13 13 13 12 11 10 9 10 9 5 7 10 11 7 6 7 6 3 3 4 4 4 4 5 6 6 6 7 7 7 7 7
5 4 5 6 7 8 9 9 10 11 11 11 12 13 13 12 10 8 8 7 7 6 8 12 7 5 5 6 5 3 4 4 3 4 4 5 6 5 5 6 7 7 7 8
2 4 6 8 9 11 11 10 10 10 12 11 12 12 12 12 9 8 9 7 5 12 7 5 5 6 5 7 3 3 3 3 4 4 5 5 5 5 6 7 8 7 7 8
4 4 6 8 9 11 12 12 12 11 11 11 11 12 11 8 7 8 6 4 6 9 6 6 7 9 8 4 2 2 3 3 4 4 5 5 5 6 6 7 7 7 8 8
4 6 7 8 9 10 13 13 12 12 12 11 11 10 9 6 5 3 2 9 13 11 6 7 9 10 7 3 2 3 3 3 4 4 5 8 6 5 6 6 7 7 8 10
6 8 9 9 9 8 11 11 11 11 12 10 10 7 6 5 5 5 5 6 13 9 6 11 11 8 3 3 3 3 3 3 4 5 6 6 6 5 5 6 6 8 8 7
9 7 8 10 9 8 8 8 8 7 7 7 5 3 4 2 1 5 5 7 8 7 5 5 5 4 4 4 4 2 3 5 5 5 7 7 6 5 5 6 7 7 7 7
8 8 8 7 7 7 7 8 8 8 6 6 6 3 3 3 4 5 6 5 5 5 4 4 4 6 5 4 2 3 5 5 5 7 7 6 5 4 5 6 7 7 7 6
Wind_Direction
260 271 253 263 255 208 221 235 251 275 281 286 304 318 313 317 315 304 293 286 285 285 278 260 244 253 255 256 243 228 226 230 229 230 232 223 230 231 233 226 225 225 223 216
259 234 258 276 265 252 240 234 255 265 276 285 290 288 311 313 314 309 303 301 297 281 268 253 240 243 239 242 230 215 219 228 227 219 224 229 229 233 236 233 228 232 228 224
265 122 256 263 262 236 225 237 234 242 253 274 310 313 315 315 310 301 303 310 306 285 266 238 224 217 227 226 206 210 225 223 224 223 227 228 219 225 229 231 234 231 231 232
270 166 243 272 218 249 242 247 225 252 264 279 283 292 300 288 279 295 310 313 304 276 248 238 221 214 216 207 216 222 228 229 225 227 227 229 235 233 233 231 231 236 236 233
226 219 288 305 242 179 190 270 216 235 253 264 275 307 290 213 240 284 295 300 288 276 252 235 230 219 211 214 217 217 226 231 225 220 233 231 231 233 235 234 234 229 228 231
187 232 239 83 127 158 159 267 247 225 219 215 156 269 298 168 247 279 282 278 271 250 230 232 229 218 225 227 224 227 225 222 234 233 226 230 241 239 237 235 242 242 241 230
227 245 254 239 157 167 212 268 165 185 199 177 200 255 296 285 278 276 276 271 245 252 240 228 222 211 230 237 230 230 196 214 223 243 251 256 252 244 244 249 254 250 250 246
208 224 253 189 138 209 218 174 204 208 224 212 230 261 268 271 276 274 271 265 246 245 243 243 225 216 233 236 232 216 213 217 224 227 231 240 245 254 250 245 244 244 248 257
203 208 31 169 205 216 279 265 233 236 227 238 254 260 255 264 274 281 277 268 257 239 245 242 225 216 233 236 227 212 225 235 242 243 244 244 254 254 246 245 246 252 245 241
248 219 236 210 238 252 251 250 255 248 262 266 269 267 267 270 273 273 271 265 261 248 241 245 235 223 224 236 223 215 236 234 238 238 244 258 242 244 242 251 245 241 250 247
248 256 280 253 242 254 259 259 258 262 260 262 267 267 269 269 273 270 273 268 264 253 251 248 250 237 225 214 212 219 230 239 243 244 248 259 255 254 256 247 242 252 245 245
239 224 237 260 265 243 249 252 260 264 273 274 278 276 263 268 272 275 272 273 267 263 252 248 249 243 225 207 205 215 226 234 245 264 265 267 268 273 245 246 255 256 261 258
263 269 279 291 283 285 280 277 284 288 286 289 283 276 278 280 281 277 272 273 274 269 262 252 247 241 222 206 208 215 224 243 249 237 254 264 277 283 292 284 251 254 252 255
280 286 266 259 263 267 268 272 276 276 275 271 276 279 277 281 287 279 271 273 276 277 267 256 251 240 208 196 195 205 223 250 252 245 246 255 268 282 281 285 294 296 270 250
264 263 272 284 282 275 275 278 271 267 274 276 277 278 281 278 275 276 277 278 276 269 262 253 239 219 159 161 184 189 188 225 241 252 253 262 271 275 277 282 284 291 296 278
269 271 271 271 274 276 276 275 274 275 275 278 279 279 280 281 282 279 276 273 272 259 261 239 223 177 150 161 173 186 210 226 247 257 258 265 270 275 282 282 284 286 288 293
260 262 264 265 267 271 272 271 271 276 280 278 277 279 276 274 272 269 264 264 259 255 256 203 192 141 156 171 177 193 200 209 227 252 272 284 293 284 285 289 287 287 291 289
263 266 267 271 277 280 282 281 279 278 275 276 275 275 273 274 272 276 279 275 238 237 218 188 162 162 167 168 174 184 215 225 235 263 281 290 291 295 293 295 300 304 306 303
255 262 268 271 276 278 280 284 284 287 288 286 285 279 279 277 279 278 278 249 229 217 209 182 161 167 164 157 174 185 220 242 255 267 280 290 294 290 289 296 298 302 304 310
286 294 298 299 300 292 291 290 293 289 284 286 283 278 275 272 272 273 266 245 228 223 174 162 169 175 167 160 181 195 216 244 265 276 282 287 288 295 293 286 285 283 285 286
299 303 293 289 292 292 284 286 289 287 291 289 282 278 275 276 266 249 235 233 213 164 161 152 170 162 172 163 175 202 226 253 275 283 281 283 293 295 297 301 303 297 290 288
308 299 298 301 302 302 304 303 300 297 293 292 287 279 272 267 256 237 224 226 151 149 150 159 171 171 155 161 198 210 231 261 268 274 285 292 300 302 292 300 300 294 292 294
313 309 304 302 308 309 309 303 297 291 287 285 284 281 273 261 244 229 216 191 148 166 152 157 159 167 165 175 179 224 250 259 269 275 276 278 283 283 295 302 302 304 307 306
320 317 314 311 307 304 300 303 305 300 294 288 278 272 269 253 229 226 163 155 142 152 159 147 166 183 159 157 194 228 249 276 279 276 276 280 282 283 295 303 308 308 308 305
314 307 298 295 299 297 302 303 304 295 291 288 280 284 258 243 230 177 176 157 152 160 155 163 164 165 163 191 214 227 251 268 271 275 277 282 285 287 297 305 309 308 303 304
309 305 300 295 286 292 292 290 287 294 297 295 290 256 234 180 134 154 166 154 158 156 153 156 150 167 197 216 223 241 263 264 271 276 279 286 292 303 311 307 305 299 300 303
292 281 283 283 284 290 292 288 290 287 286 271 262 215 203 205 162 163 160 157 161 166 160 160 169 198 208 215 221 247 256 268 274 273 278 285 302 307 305 303 299 301 302 305